owner,sensor,date,latitude,longitude,vertical_datum,wind_speed,wind_to_direction,wind_speed_of_gust,qcFlag 
WAVCIS,ioos:station:WAVCIS:CSI06:1,2009-09-01T00:00:00Z,28.8667,-90.4833,10.0,3.619,80.0,,'11111222,11111222,99999999' 
WAVCIS,ioos:station:WAVCIS:CSI06:1,2009-09-01T01:00:00Z,28.8667,-90.4833,10.0,2.261,76.0,,'11111222,11111222,99999999' 
WAVCIS,ioos:station:WAVCIS:CSI06:1,2009-09-01T02:00:00Z,28.8667,-90.4833,10.0,2.283,83.0,,'11111222,11111222,99999999' 
WAVCIS,ioos:station:WAVCIS:CSI06:1,2009-09-01T03:00:00Z,28.8667,-90.4833,10.0,2.717,18.0,,'11111222,11111222,99999999' 
WAVCIS,ioos:station:WAVCIS:CSI06:1,2009-09-01T04:00:00Z,28.8667,-90.4833,10.0,1.969,36.0,,'11111222,11111222,99999999' 
WAVCIS,ioos:station:WAVCIS:CSI06:1,2009-09-01T05:00:00Z,28.8667,-90.4833,10.0,2.187,25.0,,'11111222,11111222,99999999' 
WAVCIS,ioos:station:WAVCIS:CSI06:1,2009-09-01T06:00:00Z,28.8667,-90.4833,10.0,2.81,34.0,,'11111222,11111222,99999999' 
WAVCIS,ioos:station:WAVCIS:CSI06:1,2009-09-01T07:00:00Z,28.8667,-90.4833,10.0,3.466,38.0,,'11111222,11111222,99999999' 
WAVCIS,ioos:station:WAVCIS:CSI06:1,2009-09-01T08:00:00Z,28.8667,-90.4833,10.0,4.77,36.0,,'11111222,11111222,99999999' 
WAVCIS,ioos:station:WAVCIS:CSI06:1,2009-09-01T09:00:00Z,28.8667,-90.4833,10.0,5.769,26.0,,'11111222,11111222,99999999' 
WAVCIS,ioos:station:WAVCIS:CSI06:1,2009-09-01T10:00:00Z,28.8667,-90.4833,10.0,5.756,40.0,,'11111222,11111222,99999999' 
WAVCIS,ioos:station:WAVCIS:CSI06:1,2009-09-01T11:00:00Z,28.8667,-90.4833,10.0,6.268,22.0,,'11111222,11111222,99999999' 
WAVCIS,ioos:station:WAVCIS:CSI06:1,2009-09-01T12:00:00Z,28.8667,-90.4833,10.0,7.45,22.0,,'11111222,11111222,99999999' 
WAVCIS,ioos:station:WAVCIS:CSI06:1,2009-09-01T13:00:00Z,28.8667,-90.4833,10.0,7.96,29.0,,'11111222,11111222,99999999' 
WAVCIS,ioos:station:WAVCIS:CSI06:1,2009-09-01T14:00:00Z,28.8667,-90.4833,10.0,6.684,37.0,,'11111222,11111222,99999999' 
WAVCIS,ioos:station:WAVCIS:CSI06:1,2009-09-01T15:00:00Z,28.8667,-90.4833,10.0,6.894,41.0,,'11111222,11111222,99999999' 
WAVCIS,ioos:station:WAVCIS:CSI06:1,2009-09-01T16:00:00Z,28.8667,-90.4833,10.0,5.456,43.0,,'11111222,11111222,99999999' 
WAVCIS,ioos:station:WAVCIS:CSI06:1,2009-09-01T17:00:00Z,28.8667,-90.4833,10.0,4.441,41.0,,'11111222,11111222,99999999' 
WAVCIS,ioos:station:WAVCIS:CSI06:1,2009-09-01T18:00:00Z,28.8667,-90.4833,10.0,4.887,37.0,,'11111222,11111222,99999999' 
WAVCIS,ioos:station:WAVCIS:CSI06:1,2009-09-01T19:00:00Z,28.8667,-90.4833,10.0,5.199,19.0,,'11111222,11111222,99999999' 
WAVCIS,ioos:station:WAVCIS:CSI06:1,2009-09-01T20:00:00Z,28.8667,-90.4833,10.0,3.701,15.0,,'11111222,11111222,99999999' 
WAVCIS,ioos:station:WAVCIS:CSI06:1,2009-09-01T21:00:00Z,28.8667,-90.4833,10.0,3.558,16.0,,'11111222,11111222,99999999' 
WAVCIS,ioos:station:WAVCIS:CSI06:1,2009-09-01T22:00:00Z,28.8667,-90.4833,10.0,2.232,13.0,,'11111222,11111222,99999999' 
WAVCIS,ioos:station:WAVCIS:CSI06:1,2009-09-01T23:00:00Z,28.8667,-90.4833,10.0,2.342,39.0,,'11111222,11111222,99999999' 
WAVCIS,ioos:station:WAVCIS:CSI06:1,2009-09-02T00:00:00Z,28.8667,-90.4833,10.0,2.344,73.0,,'11111222,11111222,99999999' 
WAVCIS,ioos:station:WAVCIS:CSI06:1,2009-09-02T01:00:00Z,28.8667,-90.4833,10.0,2.172,78.0,,'11111222,11111222,99999999' 
WAVCIS,ioos:station:WAVCIS:CSI06:1,2009-09-02T02:00:00Z,28.8667,-90.4833,10.0,1.876,74.0,,'11111222,11111222,99999999' 
WAVCIS,ioos:station:WAVCIS:CSI06:1,2009-09-02T03:00:00Z,28.8667,-90.4833,10.0,2.383,35.0,,'11111222,11111222,99999999' 
WAVCIS,ioos:station:WAVCIS:CSI06:1,2009-09-02T04:00:00Z,28.8667,-90.4833,10.0,3.198,13.0,,'11111222,11111222,99999999' 
WAVCIS,ioos:station:WAVCIS:CSI06:1,2009-09-02T05:00:00Z,28.8667,-90.4833,10.0,5.992,345.0,,'11111222,11111222,99999999' 
WAVCIS,ioos:station:WAVCIS:CSI06:1,2009-09-02T06:00:00Z,28.8667,-90.4833,10.0,4.709,359.0,,'11111222,11111222,99999999' 
WAVCIS,ioos:station:WAVCIS:CSI06:1,2009-09-02T07:00:00Z,28.8667,-90.4833,10.0,8.09,6.0,,'11111222,11111222,99999999' 
WAVCIS,ioos:station:WAVCIS:CSI06:1,2009-09-02T08:00:00Z,28.8667,-90.4833,10.0,6.835,9.0,,'11111222,11111222,99999999' 
WAVCIS,ioos:station:WAVCIS:CSI06:1,2009-09-02T09:00:00Z,28.8667,-90.4833,10.0,6.93,9.0,,'11111222,11111222,99999999' 
WAVCIS,ioos:station:WAVCIS:CSI06:1,2009-09-02T10:00:00Z,28.8667,-90.4833,10.0,7.87,13.0,,'11111222,11111222,99999999' 
WAVCIS,ioos:station:WAVCIS:CSI06:1,2009-09-02T11:00:00Z,28.8667,-90.4833,10.0,7.56,17.0,,'11111222,11111222,99999999' 
WAVCIS,ioos:station:WAVCIS:CSI06:1,2009-09-02T12:00:00Z,28.8667,-90.4833,10.0,6.895,26.0,,'11111222,11111222,99999999' 
WAVCIS,ioos:station:WAVCIS:CSI06:1,2009-09-02T13:00:00Z,28.8667,-90.4833,10.0,7.13,29.0,,'11111222,11111222,99999999' 
WAVCIS,ioos:station:WAVCIS:CSI06:1,2009-09-02T14:00:00Z,28.8667,-90.4833,10.0,6.464,31.0,,'11111222,11111222,99999999' 
WAVCIS,ioos:station:WAVCIS:CSI06:1,2009-09-02T15:00:00Z,28.8667,-90.4833,10.0,6.218,47.0,,'11111222,11111222,99999999' 
WAVCIS,ioos:station:WAVCIS:CSI06:1,2009-09-02T16:00:00Z,28.8667,-90.4833,10.0,4.788,47.0,,'11111222,11111222,99999999' 
WAVCIS,ioos:station:WAVCIS:CSI06:1,2009-09-02T17:00:00Z,28.8667,-90.4833,10.0,2.834,42.0,,'11111222,11111222,99999999' 
WAVCIS,ioos:station:WAVCIS:CSI06:1,2009-09-02T18:00:00Z,28.8667,-90.4833,10.0,3.933,26.0,,'11111222,11111222,99999999' 
WAVCIS,ioos:station:WAVCIS:CSI06:1,2009-09-02T19:00:00Z,28.8667,-90.4833,10.0,4.012,21.0,,'11111222,11111222,99999999' 
WAVCIS,ioos:station:WAVCIS:CSI06:1,2009-09-02T20:00:00Z,28.8667,-90.4833,10.0,3.907,16.0,,'11111222,11111222,99999999' 
WAVCIS,ioos:station:WAVCIS:CSI06:1,2009-09-02T21:00:00Z,28.8667,-90.4833,10.0,3.399,13.0,,'11111222,11111222,99999999' 
WAVCIS,ioos:station:WAVCIS:CSI06:1,2009-09-02T22:00:00Z,28.8667,-90.4833,10.0,2.386,10.0,,'11111222,11111222,99999999' 
WAVCIS,ioos:station:WAVCIS:CSI06:1,2009-09-02T23:00:00Z,28.8667,-90.4833,10.0,2.098,13.0,,'11111222,11111222,99999999' 
WAVCIS,ioos:station:WAVCIS:CSI06:1,2009-09-03T00:00:00Z,28.8667,-90.4833,10.0,1.905,9.0,,'11111222,11111222,99999999' 
WAVCIS,ioos:station:WAVCIS:CSI06:1,2009-09-03T01:00:00Z,28.8667,-90.4833,10.0,1.555,75.0,,'11111222,11111222,99999999' 
WAVCIS,ioos:station:WAVCIS:CSI06:1,2009-09-03T02:00:00Z,28.8667,-90.4833,10.0,2.226,95.0,,'11111222,11111222,99999999' 
WAVCIS,ioos:station:WAVCIS:CSI06:1,2009-09-03T03:00:00Z,28.8667,-90.4833,10.0,0.565,158.0,,'11111222,11111222,99999999' 
WAVCIS,ioos:station:WAVCIS:CSI06:1,2009-09-03T04:00:00Z,28.8667,-90.4833,10.0,0.389,304.0,,'11111222,11111222,99999999' 
WAVCIS,ioos:station:WAVCIS:CSI06:1,2009-09-03T05:00:00Z,28.8667,-90.4833,10.0,2.412,290.0,,'11111222,11111222,99999999' 
WAVCIS,ioos:station:WAVCIS:CSI06:1,2009-09-03T06:00:00Z,28.8667,-90.4833,10.0,7.7,335.0,,'11111222,11111222,99999999' 
WAVCIS,ioos:station:WAVCIS:CSI06:1,2009-09-03T07:00:00Z,28.8667,-90.4833,10.0,6.651,336.0,,'11111222,11111222,99999999' 
WAVCIS,ioos:station:WAVCIS:CSI06:1,2009-09-03T08:00:00Z,28.8667,-90.4833,10.0,5.716,337.0,,'11111222,11111222,99999999' 
WAVCIS,ioos:station:WAVCIS:CSI06:1,2009-09-03T09:00:00Z,28.8667,-90.4833,10.0,5.938,336.0,,'11111222,11111222,99999999' 
WAVCIS,ioos:station:WAVCIS:CSI06:1,2009-09-03T10:00:00Z,28.8667,-90.4833,10.0,5.139,337.0,,'11111222,11111222,99999999' 
WAVCIS,ioos:station:WAVCIS:CSI06:1,2009-09-03T11:00:00Z,28.8667,-90.4833,10.0,4.176,8.0,,'11111222,11111222,99999999' 
WAVCIS,ioos:station:WAVCIS:CSI06:1,2009-09-03T12:00:00Z,28.8667,-90.4833,10.0,5.208,27.0,,'11111222,11111222,99999999' 
WAVCIS,ioos:station:WAVCIS:CSI06:1,2009-09-03T13:00:00Z,28.8667,-90.4833,10.0,4.855,17.0,,'11111222,11111222,99999999' 
WAVCIS,ioos:station:WAVCIS:CSI06:1,2009-09-03T14:00:00Z,28.8667,-90.4833,10.0,4.651,13.0,,'11111222,11111222,99999999' 
WAVCIS,ioos:station:WAVCIS:CSI06:1,2009-09-03T15:00:00Z,28.8667,-90.4833,10.0,5.654,19.0,,'11111222,11111222,99999999' 
WAVCIS,ioos:station:WAVCIS:CSI06:1,2009-09-03T16:00:00Z,28.8667,-90.4833,10.0,6.207,18.0,,'11111222,11111222,99999999' 
WAVCIS,ioos:station:WAVCIS:CSI06:1,2009-09-03T17:00:00Z,28.8667,-90.4833,10.0,6.483,17.0,,'11111222,11111222,99999999' 
WAVCIS,ioos:station:WAVCIS:CSI06:1,2009-09-03T18:00:00Z,28.8667,-90.4833,10.0,7.1,19.0,,'11111222,11111222,99999999' 
WAVCIS,ioos:station:WAVCIS:CSI06:1,2009-09-03T19:00:00Z,28.8667,-90.4833,10.0,6.749,19.0,,'11111222,11111222,99999999' 
WAVCIS,ioos:station:WAVCIS:CSI06:1,2009-09-03T20:00:00Z,28.8667,-90.4833,10.0,7.25,17.0,,'11111222,11111222,99999999' 
WAVCIS,ioos:station:WAVCIS:CSI06:1,2009-09-03T21:00:00Z,28.8667,-90.4833,10.0,6.483,13.0,,'11111222,11111222,99999999' 
WAVCIS,ioos:station:WAVCIS:CSI06:1,2009-09-03T22:00:00Z,28.8667,-90.4833,10.0,5.79,17.0,,'11111222,11111222,99999999' 
WAVCIS,ioos:station:WAVCIS:CSI06:1,2009-09-03T23:00:00Z,28.8667,-90.4833,10.0,6.19,35.0,,'11111222,11111222,99999999' 
WAVCIS,ioos:station:WAVCIS:CSI06:1,2009-09-04T00:00:00Z,28.8667,-90.4833,10.0,8.71,61.0,,'11111222,11111222,99999999' 
WAVCIS,ioos:station:WAVCIS:CSI06:1,2009-09-04T01:00:00Z,28.8667,-90.4833,10.0,7.75,67.0,,'11111222,11111222,99999999' 
WAVCIS,ioos:station:WAVCIS:CSI06:1,2009-09-04T02:00:00Z,28.8667,-90.4833,10.0,5.88,74.0,,'11111222,11111222,99999999' 
WAVCIS,ioos:station:WAVCIS:CSI06:1,2009-09-04T03:00:00Z,28.8667,-90.4833,10.0,5.793,63.0,,'11111222,11111222,99999999' 
WAVCIS,ioos:station:WAVCIS:CSI06:1,2009-09-04T04:00:00Z,28.8667,-90.4833,10.0,6.03,62.0,,'11111222,11111222,99999999' 
WAVCIS,ioos:station:WAVCIS:CSI06:1,2009-09-04T05:00:00Z,28.8667,-90.4833,10.0,5.026,47.0,,'11111222,11111222,99999999' 
WAVCIS,ioos:station:WAVCIS:CSI06:1,2009-09-04T06:00:00Z,28.8667,-90.4833,10.0,5.637,82.0,,'11111222,11111222,99999999' 
WAVCIS,ioos:station:WAVCIS:CSI06:1,2009-09-04T07:00:00Z,28.8667,-90.4833,10.0,5.648,100.0,,'11111222,11111222,99999999' 
WAVCIS,ioos:station:WAVCIS:CSI06:1,2009-09-04T08:00:00Z,28.8667,-90.4833,10.0,3.483,86.0,,'11111222,11111222,99999999' 
WAVCIS,ioos:station:WAVCIS:CSI06:1,2009-09-04T09:00:00Z,28.8667,-90.4833,10.0,3.573,62.0,,'11111222,11111222,99999999' 
WAVCIS,ioos:station:WAVCIS:CSI06:1,2009-09-04T10:00:00Z,28.8667,-90.4833,10.0,5.307,91.0,,'11111222,11111222,99999999' 
WAVCIS,ioos:station:WAVCIS:CSI06:1,2009-09-04T11:00:00Z,28.8667,-90.4833,10.0,3.97,74.0,,'11111222,11111222,99999999' 
WAVCIS,ioos:station:WAVCIS:CSI06:1,2009-09-04T12:00:00Z,28.8667,-90.4833,10.0,2.654,111.0,,'11111222,11111222,99999999' 
WAVCIS,ioos:station:WAVCIS:CSI06:1,2009-09-04T13:00:00Z,28.8667,-90.4833,10.0,2.577,86.0,,'11111222,11111222,99999999' 
WAVCIS,ioos:station:WAVCIS:CSI06:1,2009-09-04T14:00:00Z,28.8667,-90.4833,10.0,5.689,106.0,,'11111222,11111222,99999999' 
WAVCIS,ioos:station:WAVCIS:CSI06:1,2009-09-04T15:00:00Z,28.8667,-90.4833,10.0,4.068,81.0,,'11111222,11111222,99999999' 
WAVCIS,ioos:station:WAVCIS:CSI06:1,2009-09-04T16:00:00Z,28.8667,-90.4833,10.0,6.708,73.0,,'11111222,11111222,99999999' 
WAVCIS,ioos:station:WAVCIS:CSI06:1,2009-09-04T17:00:00Z,28.8667,-90.4833,10.0,8.72,65.0,,'11111222,11111222,99999999' 
WAVCIS,ioos:station:WAVCIS:CSI06:1,2009-09-04T18:00:00Z,28.8667,-90.4833,10.0,8.15,72.0,,'11111222,11111222,99999999' 
WAVCIS,ioos:station:WAVCIS:CSI06:1,2009-09-04T19:00:00Z,28.8667,-90.4833,10.0,6.482,74.0,,'11111222,11111222,99999999' 
WAVCIS,ioos:station:WAVCIS:CSI06:1,2009-09-04T20:00:00Z,28.8667,-90.4833,10.0,7.28,76.0,,'11111222,11111222,99999999' 
WAVCIS,ioos:station:WAVCIS:CSI06:1,2009-09-04T21:00:00Z,28.8667,-90.4833,10.0,6.137,78.0,,'11111222,11111222,99999999' 
WAVCIS,ioos:station:WAVCIS:CSI06:1,2009-09-04T22:00:00Z,28.8667,-90.4833,10.0,6.182,77.0,,'11111222,11111222,99999999' 
WAVCIS,ioos:station:WAVCIS:CSI06:1,2009-09-04T23:00:00Z,28.8667,-90.4833,10.0,6.274,79.0,,'11111222,11111222,99999999' 
WAVCIS,ioos:station:WAVCIS:CSI06:1,2009-09-05T00:00:00Z,28.8667,-90.4833,10.0,5.201,71.0,,'11111222,11111222,99999999' 
WAVCIS,ioos:station:WAVCIS:CSI06:1,2009-09-05T01:00:00Z,28.8667,-90.4833,10.0,4.271,70.0,,'11111222,11111222,99999999' 
WAVCIS,ioos:station:WAVCIS:CSI06:1,2009-09-05T02:00:00Z,28.8667,-90.4833,10.0,5.147,84.0,,'11111222,11111222,99999999' 
WAVCIS,ioos:station:WAVCIS:CSI06:1,2009-09-05T03:00:00Z,28.8667,-90.4833,10.0,5.534,70.0,,'11111222,11111222,99999999' 
WAVCIS,ioos:station:WAVCIS:CSI06:1,2009-09-05T04:00:00Z,28.8667,-90.4833,10.0,4.241,84.0,,'11111222,11111222,99999999' 
WAVCIS,ioos:station:WAVCIS:CSI06:1,2009-09-05T05:00:00Z,28.8667,-90.4833,10.0,5.236,107.0,,'11111222,11111222,99999999' 
WAVCIS,ioos:station:WAVCIS:CSI06:1,2009-09-05T06:00:00Z,28.8667,-90.4833,10.0,4.88,106.0,,'11111222,11111222,99999999' 
WAVCIS,ioos:station:WAVCIS:CSI06:1,2009-09-05T07:00:00Z,28.8667,-90.4833,10.0,3.392,134.0,,'11111222,11111222,99999999' 
WAVCIS,ioos:station:WAVCIS:CSI06:1,2009-09-05T08:00:00Z,28.8667,-90.4833,10.0,2.322,177.0,,'11111222,11111222,99999999' 
WAVCIS,ioos:station:WAVCIS:CSI06:1,2009-09-05T09:00:00Z,28.8667,-90.4833,10.0,2.102,192.0,,'11111222,11111222,99999999' 
WAVCIS,ioos:station:WAVCIS:CSI06:1,2009-09-05T10:00:00Z,28.8667,-90.4833,10.0,1.798,234.0,,'11111222,11111222,99999999' 
WAVCIS,ioos:station:WAVCIS:CSI06:1,2009-09-05T11:00:00Z,28.8667,-90.4833,10.0,1.859,313.0,,'11111222,11111222,99999999' 
WAVCIS,ioos:station:WAVCIS:CSI06:1,2009-09-05T12:00:00Z,28.8667,-90.4833,10.0,6.772,162.0,,'11111222,11111222,99999999' 
WAVCIS,ioos:station:WAVCIS:CSI06:1,2009-09-05T13:00:00Z,28.8667,-90.4833,10.0,0.539,16.0,,'11111222,11111222,99999999' 
WAVCIS,ioos:station:WAVCIS:CSI06:1,2009-09-05T14:00:00Z,28.8667,-90.4833,10.0,1.368,75.0,,'11111222,11111222,99999999' 
WAVCIS,ioos:station:WAVCIS:CSI06:1,2009-09-05T15:00:00Z,28.8667,-90.4833,10.0,1.601,78.0,,'11111222,11111222,99999999' 
WAVCIS,ioos:station:WAVCIS:CSI06:1,2009-09-05T16:00:00Z,28.8667,-90.4833,10.0,1.905,101.0,,'11111222,11111222,99999999' 
WAVCIS,ioos:station:WAVCIS:CSI06:1,2009-09-05T17:00:00Z,28.8667,-90.4833,10.0,2.495,118.0,,'11111222,11111222,99999999' 
WAVCIS,ioos:station:WAVCIS:CSI06:1,2009-09-05T18:00:00Z,28.8667,-90.4833,10.0,1.127,125.0,,'11111222,11111222,99999999' 
WAVCIS,ioos:station:WAVCIS:CSI06:1,2009-09-05T19:00:00Z,28.8667,-90.4833,10.0,1.345,113.0,,'11111222,11111222,99999999' 
WAVCIS,ioos:station:WAVCIS:CSI06:1,2009-09-05T20:00:00Z,28.8667,-90.4833,10.0,0.621,165.0,,'11111222,11111222,99999999' 
WAVCIS,ioos:station:WAVCIS:CSI06:1,2009-09-05T21:00:00Z,28.8667,-90.4833,10.0,1.118,162.0,,'11111222,11111222,99999999' 
WAVCIS,ioos:station:WAVCIS:CSI06:1,2009-09-05T22:00:00Z,28.8667,-90.4833,10.0,1.014,122.0,,'11111222,11111222,99999999' 
WAVCIS,ioos:station:WAVCIS:CSI06:1,2009-09-05T23:00:00Z,28.8667,-90.4833,10.0,1.98,109.0,,'11111222,11111222,99999999' 
WAVCIS,ioos:station:WAVCIS:CSI06:1,2009-09-06T00:00:00Z,28.8667,-90.4833,10.0,3.54,113.0,,'11111222,11111222,99999999' 
WAVCIS,ioos:station:WAVCIS:CSI06:1,2009-09-06T01:00:00Z,28.8667,-90.4833,10.0,4.468,133.0,,'11111222,11111222,99999999' 
WAVCIS,ioos:station:WAVCIS:CSI06:1,2009-09-06T02:00:00Z,28.8667,-90.4833,10.0,4.556,129.0,,'11111222,11111222,99999999' 
WAVCIS,ioos:station:WAVCIS:CSI06:1,2009-09-06T03:00:00Z,28.8667,-90.4833,10.0,5.834,131.0,,'11111222,11111222,99999999' 
WAVCIS,ioos:station:WAVCIS:CSI06:1,2009-09-06T04:00:00Z,28.8667,-90.4833,10.0,5.451,135.0,,'11111222,11111222,99999999' 
WAVCIS,ioos:station:WAVCIS:CSI06:1,2009-09-06T05:00:00Z,28.8667,-90.4833,10.0,4.466,147.0,,'11111222,11111222,99999999' 
WAVCIS,ioos:station:WAVCIS:CSI06:1,2009-09-06T06:00:00Z,28.8667,-90.4833,10.0,3.861,159.0,,'11111222,11111222,99999999' 
WAVCIS,ioos:station:WAVCIS:CSI06:1,2009-09-06T07:00:00Z,28.8667,-90.4833,10.0,3.712,147.0,,'11111222,11111222,99999999' 
WAVCIS,ioos:station:WAVCIS:CSI06:1,2009-09-06T08:00:00Z,28.8667,-90.4833,10.0,4.515,163.0,,'11111222,11111222,99999999' 
WAVCIS,ioos:station:WAVCIS:CSI06:1,2009-09-06T09:00:00Z,28.8667,-90.4833,10.0,3.183,171.0,,'11111222,11111222,99999999' 
WAVCIS,ioos:station:WAVCIS:CSI06:1,2009-09-06T10:00:00Z,28.8667,-90.4833,10.0,3.979,176.0,,'11111222,11111222,99999999' 
WAVCIS,ioos:station:WAVCIS:CSI06:1,2009-09-06T11:00:00Z,28.8667,-90.4833,10.0,2.499,186.0,,'11111222,11111222,99999999' 
WAVCIS,ioos:station:WAVCIS:CSI06:1,2009-09-06T12:00:00Z,28.8667,-90.4833,10.0,1.996,221.0,,'11111222,11111222,99999999' 
WAVCIS,ioos:station:WAVCIS:CSI06:1,2009-09-06T13:00:00Z,28.8667,-90.4833,10.0,2.022,199.0,,'11111222,11111222,99999999' 
WAVCIS,ioos:station:WAVCIS:CSI06:1,2009-09-06T14:00:00Z,28.8667,-90.4833,10.0,2.067,302.0,,'11111222,11111222,99999999' 
WAVCIS,ioos:station:WAVCIS:CSI06:1,2009-09-06T15:00:00Z,28.8667,-90.4833,10.0,3.809,149.0,,'11111222,11111222,99999999' 
WAVCIS,ioos:station:WAVCIS:CSI06:1,2009-09-06T16:00:00Z,28.8667,-90.4833,10.0,3.857,142.0,,'11111222,11111222,99999999' 
WAVCIS,ioos:station:WAVCIS:CSI06:1,2009-09-06T17:00:00Z,28.8667,-90.4833,10.0,2.852,153.0,,'11111222,11111222,99999999' 
WAVCIS,ioos:station:WAVCIS:CSI06:1,2009-09-06T18:00:00Z,28.8667,-90.4833,10.0,3.214,161.0,,'11111222,11111222,99999999' 
WAVCIS,ioos:station:WAVCIS:CSI06:1,2009-09-06T19:00:00Z,28.8667,-90.4833,10.0,3.433,152.0,,'11111222,11111222,99999999' 
WAVCIS,ioos:station:WAVCIS:CSI06:1,2009-09-06T20:00:00Z,28.8667,-90.4833,10.0,7.45,169.0,,'11111222,11111222,99999999' 
WAVCIS,ioos:station:WAVCIS:CSI06:1,2009-09-06T21:00:00Z,28.8667,-90.4833,10.0,6.795,180.0,,'11111222,11111222,99999999' 
WAVCIS,ioos:station:WAVCIS:CSI06:1,2009-09-06T22:00:00Z,28.8667,-90.4833,10.0,3.941,196.0,,'11111222,11111222,99999999' 
WAVCIS,ioos:station:WAVCIS:CSI06:1,2009-09-06T23:00:00Z,28.8667,-90.4833,10.0,3.093,188.0,,'11111222,11111222,99999999' 
WAVCIS,ioos:station:WAVCIS:CSI06:1,2009-09-07T00:00:00Z,28.8667,-90.4833,10.0,3.498,159.0,,'11111222,11111222,99999999' 
WAVCIS,ioos:station:WAVCIS:CSI06:1,2009-09-07T01:00:00Z,28.8667,-90.4833,10.0,2.786,142.0,,'11111222,11111222,99999999' 
WAVCIS,ioos:station:WAVCIS:CSI06:1,2009-09-07T02:00:00Z,28.8667,-90.4833,10.0,1.775,130.0,,'11111222,11111222,99999999' 
WAVCIS,ioos:station:WAVCIS:CSI06:1,2009-09-07T03:00:00Z,28.8667,-90.4833,10.0,4.11,143.0,,'11111222,11111222,99999999' 
WAVCIS,ioos:station:WAVCIS:CSI06:1,2009-09-07T04:00:00Z,28.8667,-90.4833,10.0,3.897,135.0,,'11111222,11111222,99999999' 
WAVCIS,ioos:station:WAVCIS:CSI06:1,2009-09-07T05:00:00Z,28.8667,-90.4833,10.0,5.739,151.0,,'11111222,11111222,99999999' 
WAVCIS,ioos:station:WAVCIS:CSI06:1,2009-09-07T06:00:00Z,28.8667,-90.4833,10.0,4.096,132.0,,'11111222,11111222,99999999' 
WAVCIS,ioos:station:WAVCIS:CSI06:1,2009-09-07T07:00:00Z,28.8667,-90.4833,10.0,3.608,143.0,,'11111222,11111222,99999999' 
WAVCIS,ioos:station:WAVCIS:CSI06:1,2009-09-07T08:00:00Z,28.8667,-90.4833,10.0,3.277,134.0,,'11111222,11111222,99999999' 
WAVCIS,ioos:station:WAVCIS:CSI06:1,2009-09-07T09:00:00Z,28.8667,-90.4833,10.0,3.393,139.0,,'11111222,11111222,99999999' 
WAVCIS,ioos:station:WAVCIS:CSI06:1,2009-09-07T10:00:00Z,28.8667,-90.4833,10.0,2.975,143.0,,'11111222,11111222,99999999' 
WAVCIS,ioos:station:WAVCIS:CSI06:1,2009-09-07T11:00:00Z,28.8667,-90.4833,10.0,3.149,140.0,,'11111222,11111222,99999999' 
WAVCIS,ioos:station:WAVCIS:CSI06:1,2009-09-07T12:00:00Z,28.8667,-90.4833,10.0,2.535,128.0,,'11111222,11111222,99999999' 
WAVCIS,ioos:station:WAVCIS:CSI06:1,2009-09-07T13:00:00Z,28.8667,-90.4833,10.0,2.706,125.0,,'11111222,11111222,99999999' 
WAVCIS,ioos:station:WAVCIS:CSI06:1,2009-09-07T14:00:00Z,28.8667,-90.4833,10.0,2.847,81.0,,'11111222,11111222,99999999' 
WAVCIS,ioos:station:WAVCIS:CSI06:1,2009-09-07T15:00:00Z,28.8667,-90.4833,10.0,3.336,97.0,,'11111222,11111222,99999999' 
WAVCIS,ioos:station:WAVCIS:CSI06:1,2009-09-07T16:00:00Z,28.8667,-90.4833,10.0,2.535,92.0,,'11111222,11111222,99999999' 
WAVCIS,ioos:station:WAVCIS:CSI06:1,2009-09-07T17:00:00Z,28.8667,-90.4833,10.0,4.043,92.0,,'11111222,11111222,99999999' 
WAVCIS,ioos:station:WAVCIS:CSI06:1,2009-09-07T18:00:00Z,28.8667,-90.4833,10.0,3.489,90.0,,'11111222,11111222,99999999' 
WAVCIS,ioos:station:WAVCIS:CSI06:1,2009-09-07T19:00:00Z,28.8667,-90.4833,10.0,4.016,78.0,,'11111222,11111222,99999999' 
WAVCIS,ioos:station:WAVCIS:CSI06:1,2009-09-07T20:00:00Z,28.8667,-90.4833,10.0,3.701,92.0,,'11111222,11111222,99999999' 
WAVCIS,ioos:station:WAVCIS:CSI06:1,2009-09-07T21:00:00Z,28.8667,-90.4833,10.0,3.125,93.0,,'11111222,11111222,99999999' 
WAVCIS,ioos:station:WAVCIS:CSI06:1,2009-09-07T22:00:00Z,28.8667,-90.4833,10.0,4.616,99.0,,'11111222,11111222,99999999' 
WAVCIS,ioos:station:WAVCIS:CSI06:1,2009-09-07T23:00:00Z,28.8667,-90.4833,10.0,3.239,96.0,,'11111222,11111222,99999999' 
WAVCIS,ioos:station:WAVCIS:CSI06:1,2009-09-08T00:00:00Z,28.8667,-90.4833,10.0,4.419,98.0,,'11111222,11111222,99999999' 
WAVCIS,ioos:station:WAVCIS:CSI06:1,2009-09-08T01:00:00Z,28.8667,-90.4833,10.0,4.11,116.0,,'11111222,11111222,99999999' 
WAVCIS,ioos:station:WAVCIS:CSI06:1,2009-09-08T02:00:00Z,28.8667,-90.4833,10.0,3.72,134.0,,'11111222,11111222,99999999' 
WAVCIS,ioos:station:WAVCIS:CSI06:1,2009-09-08T03:00:00Z,28.8667,-90.4833,10.0,3.675,134.0,,'11111222,11111222,99999999' 
WAVCIS,ioos:station:WAVCIS:CSI06:1,2009-09-08T04:00:00Z,28.8667,-90.4833,10.0,3.385,120.0,,'11111222,11111222,99999999' 
WAVCIS,ioos:station:WAVCIS:CSI06:1,2009-09-08T05:00:00Z,28.8667,-90.4833,10.0,3.033,140.0,,'11111222,11111222,99999999' 
WAVCIS,ioos:station:WAVCIS:CSI06:1,2009-09-08T06:00:00Z,28.8667,-90.4833,10.0,1.685,136.0,,'11111222,11111222,99999999' 
WAVCIS,ioos:station:WAVCIS:CSI06:1,2009-09-08T07:00:00Z,28.8667,-90.4833,10.0,1.322,81.0,,'11111222,11111222,99999999' 
WAVCIS,ioos:station:WAVCIS:CSI06:1,2009-09-08T08:00:00Z,28.8667,-90.4833,10.0,2.551,121.0,,'11111222,11111222,99999999' 
WAVCIS,ioos:station:WAVCIS:CSI06:1,2009-09-08T09:00:00Z,28.8667,-90.4833,10.0,2.51,101.0,,'11111222,11111222,99999999' 
WAVCIS,ioos:station:WAVCIS:CSI06:1,2009-09-08T10:00:00Z,28.8667,-90.4833,10.0,3.444,118.0,,'11111222,11111222,99999999' 
WAVCIS,ioos:station:WAVCIS:CSI06:1,2009-09-08T11:00:00Z,28.8667,-90.4833,10.0,2.642,110.0,,'11111222,11111222,99999999' 
WAVCIS,ioos:station:WAVCIS:CSI06:1,2009-09-08T12:00:00Z,28.8667,-90.4833,10.0,2.629,107.0,,'11111222,11111222,99999999' 
WAVCIS,ioos:station:WAVCIS:CSI06:1,2009-09-08T13:00:00Z,28.8667,-90.4833,10.0,2.289,116.0,,'11111222,11111222,99999999' 
WAVCIS,ioos:station:WAVCIS:CSI06:1,2009-09-08T14:00:00Z,28.8667,-90.4833,10.0,2.214,108.0,,'11111222,11111222,99999999' 
WAVCIS,ioos:station:WAVCIS:CSI06:1,2009-09-08T15:00:00Z,28.8667,-90.4833,10.0,1.73,252.0,,'11111222,11111222,99999999' 
WAVCIS,ioos:station:WAVCIS:CSI06:1,2009-09-08T16:00:00Z,28.8667,-90.4833,10.0,0.617,98.0,,'11111222,11111222,99999999' 
WAVCIS,ioos:station:WAVCIS:CSI06:1,2009-09-08T17:00:00Z,28.8667,-90.4833,10.0,2.12,173.0,,'11111222,11111222,99999999' 
WAVCIS,ioos:station:WAVCIS:CSI06:1,2009-09-08T18:00:00Z,28.8667,-90.4833,10.0,2.568,194.0,,'11111222,11111222,99999999' 
WAVCIS,ioos:station:WAVCIS:CSI06:1,2009-09-08T19:00:00Z,28.8667,-90.4833,10.0,1.926,178.0,,'11111222,11111222,99999999' 
WAVCIS,ioos:station:WAVCIS:CSI06:1,2009-09-08T20:00:00Z,28.8667,-90.4833,10.0,2.304,167.0,,'11111222,11111222,99999999' 
WAVCIS,ioos:station:WAVCIS:CSI06:1,2009-09-08T21:00:00Z,28.8667,-90.4833,10.0,2.396,169.0,,'11111222,11111222,99999999' 
WAVCIS,ioos:station:WAVCIS:CSI06:1,2009-09-08T22:00:00Z,28.8667,-90.4833,10.0,1.967,214.0,,'11111222,11111222,99999999' 
WAVCIS,ioos:station:WAVCIS:CSI06:1,2009-09-08T23:00:00Z,28.8667,-90.4833,10.0,1.127,200.0,,'11111222,11111222,99999999' 
WAVCIS,ioos:station:WAVCIS:CSI06:1,2009-09-09T00:00:00Z,28.8667,-90.4833,10.0,1.296,166.0,,'11111222,11111222,99999999' 
WAVCIS,ioos:station:WAVCIS:CSI06:1,2009-09-09T01:00:00Z,28.8667,-90.4833,10.0,4.061,118.0,,'11111222,11111222,99999999' 
WAVCIS,ioos:station:WAVCIS:CSI06:1,2009-09-09T02:00:00Z,28.8667,-90.4833,10.0,5.864,123.0,,'11111222,11111222,99999999' 
WAVCIS,ioos:station:WAVCIS:CSI06:1,2009-09-09T03:00:00Z,28.8667,-90.4833,10.0,4.764,134.0,,'11111222,11111222,99999999' 
WAVCIS,ioos:station:WAVCIS:CSI06:1,2009-09-09T04:00:00Z,28.8667,-90.4833,10.0,4.424,127.0,,'11111222,11111222,99999999' 
WAVCIS,ioos:station:WAVCIS:CSI06:1,2009-09-09T05:00:00Z,28.8667,-90.4833,10.0,4.603,138.0,,'11111222,11111222,99999999' 